Regional Weather Roundup
Issued by NWS

Home | Current Version | Previous Version | Text Only | Print | Product List | Glossary Off
Versions: 1 2 3 4 5 6 7 8 9 10 11 12 13 14 15 16 17 18 19 20 21 22 23 24 25 26 27 28 29 30 31 32 33 34 35 36 37 38 39 40 41 42 43 44 45 46 47 48 49 50

000
ASUS43 KLMK 260602
RWRKY
KENTUCKY REGIONAL WEATHER ROUNDUP
NATIONAL WEATHER SERVICE LOUISVILLE KY
200 AM EDT FRI MAY 26 2017

NOTE "FAIR" INDICATES FEW OR NO CLOUDS BELOW 12,000 FEET
WITH NO SIGNIFICANT WEATHER AND/OR OBSTRUCTIONS TO VISIBILITY.

KYZ001>023-026-027-061>063-070>075-260700-
WESTERN AND SOUTH CENTRAL KENTUCKY

CITY           SKY/WX    TMP DP  RH WIND       PRES   REMARKS
PADUCAH        CLEAR     60  49  66 CALM      29.83R
HENDERSON      CLEAR     59  53  80 S3        29.85R
OWENSBORO      CLEAR     59  54  83 CALM      29.86R
HOPKINSVILLE   CLEAR     59  53  80 CALM      29.87R
BOWLING GREEN  CLEAR     60  53  77 SW3       29.88R
GLASGOW        NOT AVBL
$$

KYZ024-025-028>034-038-045-046-053-260700-
NORTH CENTRAL KENTUCKY

CITY           SKY/WX    TMP DP  RH WIND       PRES   REMARKS
LOUISVILLE/SDF PTCLDY    61  57  87 CALM      29.84R
LOUISVILLE/LOU CLEAR     57  56  96 CALM      29.85R FOG
FORT KNOX      CLEAR     54  54  98 CALM      29.84R
$$

KYZ035>037-039>044-047>052-055>060-089>105-260700-
NORTHEAST KENTUCKY

CITY           SKY/WX    TMP DP  RH WIND       PRES   REMARKS
LEXINGTON      PTCLDY    56  53  90 SW5       29.86R
COVINGTON      CLEAR     56  53  90 W7        29.82R
FRANKFORT      PTCLDY    56  52  86 SW5       29.84R
$$

KYZ054-064>069-076>088-106>120-260700-
SOUTHEAST KENTUCKY

CITY           SKY/WX    TMP DP  RH WIND       PRES   REMARKS
JACKSON        PTCLDY    57  56  96 VRB3      29.86R
LONDON         CLEAR     58  53  84 SW3       29.88R
SOMERSET       CLEAR     54  54 100 CALM      29.90R FOG
MIDDLESBORO    MOCLDY    57  54  88 W3        29.90R
MONTICELLO     CLEAR     49  49 100 VRB3      29.92R
$$




USA.gov is the U.S. government's official web portal to all federal, state and local government web resources and services.